星链-5220 (STARLINK-5220 )

导读

STARLINK-5220是美国太空探索技术公司(SpaceX)星链星座的成员,于2022年12月17日发射入轨,归属星链互联网卫星组网,承担低轨卫星互联网星座的通信覆盖任务。作为Starlink Group批生产卫星之一,它运行在近地轨道,为全球用户提供宽带互联网接入服务,是星链大规模星座部署的组成单元,助力SpaceX完成全球卫星通信网络的搭建。

基本信息
目录编号:
54760
目录名称:
STARLINK-5220
国际标识:
2022-175C
轨道中心:
EARTH
卫星名称:
星链-5220
卫星全名:
星链-5220 (STARLINK-5220 )
卫星状态:
在轨 (已飞行1276 天)
发射日期:
2022-12-17 UTC
国别 :
美国 (US)
星等 :
--
轨道信息
数据来源 国际轨道数据
星历时间: 2026-06-15T01:07:38+0800
14小时前
查看轨道信息
半长轴: 6917.894km
偏心率: 0.0001085
轨道倾角: 53.160°
近地点辐角 94.711°
升交点赤经 328.670°
平近点角 265.401°
近地点: 539.006km
远地点: 540.508km
周期: 95.438分钟
每日圈数: 15.088357
详细信息
固有亮度:
5
最大亮度:
2.5
卫星平台:
Starlink v1.5
覆盖范围:
全球
运营商:
太空探索技术公司
运营商所在国:
美国
制造商(研发单位):
太空探索技术公司
制造商所在国:
美国
使用方式:
暂无
卫星简介
星链(Starlink)计划是由太空探索技术公司(SpaceX)提出的一个巨型低轨卫星互联网星座项目,计划在2019年至2024年间在太空搭建由约1.2万颗卫星组成的“星链”网络,其中1584颗将部署在地球上空550千米处的近地轨道,并从2020年开始工作。该卫星仍在工作。
2D轨道图
3D轨道图
轨道高度分析图
轨道倾角分析图
轨道综合分析图
查看轨道综合分析图